DW5513 Weather Reports


Display with metric or nautical units.
time (UTC)temp
F
wind
direction
speed
MPH
gust
MPH
rain 1hr
in
rain 24hr
in
rain mn
in
humidity
%
barometer
mb
20260504194554 69 175 1.0 7.0 0.00 0.02 0.00 45 1006.4
20260504193049 69 251 2.0 12.0 0.00 0.02 0.00 43 1006.5
20260504191546 69 156 2.0 10.0 0.00 0.02 0.00 45 1006.6
20260504190053 68 340 1.0 11.0 0.00 0.02 0.00 45 1006.8
20260504184558 68 255 3.0 12.0 0.00 0.02 0.00 46 1006.9
20260504183041 68 175 2.0 7.0 0.00 0.02 0.00 45 1007.0
20260504181538 67 259 4.0 11.0 0.00 0.02 0.00 45 1007.2
20260504180037 67 296 1.0 8.0 0.00 0.02 0.00 46 1007.1
20260504174535 67 252 4.0 11.0 0.00 0.02 0.00 45 1007.3
20260504173033 66 252 3.0 12.0 0.00 0.02 0.00 46 1007.4
20260504171539 65 232 2.0 8.0 0.00 0.02 0.00 50 1007.4
20260504081501 39 89 0.0 0.0 0.00 0.02 0.00 95 1010.1
20260504044540 44 252 0.0 1.0 0.00 0.02 0.00 92 1010.6
20260504043032 44 271 0.0 0.0 0.00 0.02 0.00 91 1010.9
20260504041532 44 271 0.0 0.0 0.01 0.02 0.00 90 1011.1
20260504040028 44 271 0.0 0.0 0.02 0.02 0.00 89 1011.0
20260504034526 45 271 0.0 1.0 0.02 0.02 0.02 88 1010.9
20260504033026 45 290 0.0 2.0 0.02 0.02 0.02 86 1011.2
20260504031524 45 332 1.0 4.0 0.01 0.01 0.01 84 1011.5
20260504030035 45 221 0.0 3.0 0.00 0.00 0.00 81 1011.7
20260504024523 46 70 0.0 2.0 0.00 0.00 0.00 77 1011.4
20260504023022 46 349 0.0 3.0 0.00 0.00 0.00 74 1011.3
20260504021526 47 42 0.0 1.0 0.00 0.00 0.00 69 1011.4
20260504020020 47 38 0.0 2.0 0.00 0.00 0.00 67 1011.3
20260504014520 48 56 1.0 4.0 0.00 0.00 0.00 64 1011.2
20260504013019 48 34 0.0 5.0 0.00 0.00 0.00 62 1011.2
20260504011519 49 22 0.0 5.0 0.00 0.00 0.00 61 1011.2
20260504010017 49 321 1.0 6.0 0.00 0.00 0.00 59 1011.1
20260504004522 49 231 2.0 6.0 0.00 0.00 0.00 57 1011.1
20260504003016 49 198 0.0 3.0 0.00 0.00 0.00 55 1010.9
20260504001515 49 226 0.0 2.0 0.00 0.00 0.00 53 1010.7
20260504000016 50 326 0.0 1.0 0.00 0.00 0.00 52 1010.6
20260503234526 50 252 0.0 4.0 0.00 0.00 0.00 51 1010.5
20260503233014 51 356 4.0 11.0 0.00 0.00 0.00 49 1010.7
20260503231513 51 329 2.0 8.0 0.00 0.00 0.00 47 1010.6
20260503230012 51 335 2.0 7.0 0.00 0.00 0.00 44 1010.4
20260503224514 52 331 2.0 7.0 0.00 0.00 0.00 44 1010.2
20260503223011 53 236 2.0 9.0 0.00 0.00 0.00 42 1010.1
20260503221510 54 278 2.0 9.0 0.00 0.00 0.00 39 1010.1
20260503220028 53 327 2.0 11.0 0.00 0.00 0.00 39 1010.1
20260503214509 54 330 1.0 11.0 0.00 0.00 0.00 37 1010.0
20260503213011 55 23 2.0 12.0 0.00 0.00 0.00 37 1010.0
20260503211507 53 317 4.0 15.0 0.00 0.00 0.00 37 1009.9
20260503210008 54 297 4.0 10.0 0.00 0.00 0.00 34 1009.9
20260503204507 55 56 2.0 11.0 0.00 0.00 0.00 35 1009.7
20260503203013 55 139 3.0 13.0 0.00 0.00 0.00 34 1009.8
20260503201503 54 292 4.0 10.0 0.00 0.00 0.00 34 1009.9